Theta_e
316 316 316 317 317 317 317 318 319 319 319 320 320 321 321 322 322 322 322 322 321 321 320 319 317 316 316 316 318 319 320 320 319 318 319 318 316 316 315 314 314 315 316 317 317 316 316 316 316 317 318 318 318 319 318 318 319 319 321 320 319 319 319 319 319 319 319 320 320 321 321 321 320 321 321 321 322 323 323 324 324 327 329 329 330 329 328 328
313 314 315 316 316 317 317 317 318 318 319 319 319 320 321 322 322 322 322 323 322 321 321 320 319 317 316 316 317 318 320 320 319 320 319 317 316 315 315 313 314 314 316 317 316 315 316 316 316 317 318 319 318 319 318 319 319 320 321 319 320 320 320 320 320 320 320 320 321 321 321 321 320 321 321 320 321 322 321 323 323 325 328 331 330 326 326 326
312 312 313 314 315 316 316 317 317 318 318 319 319 319 320 321 322 322 322 323 322 322 321 321 319 318 317 316 316 318 320 319 321 322 319 316 315 315 314 314 314 314 315 317 316 315 316 316 317 317 319 319 319 318 319 319 319 320 320 320 320 321 321 321 320 320 320 320 321 321 321 321 321 321 320 320 321 321 322 323 322 324 325 329 332 327 325 327
312 312 312 313 313 314 315 316 317 317 319 319 319 319 320 320 322 322 323 323 323 322 321 321 320 318 318 316 316 317 319 321 323 321 319 316 315 315 315 315 315 314 316 317 316 316 316 316 316 317 318 320 319 319 319 320 320 320 319 320 320 321 320 321 321 320 320 320 320 321 320 320 321 321 320 320 321 321 322 323 322 324 321 325 335 331 325 327
313 313 313 313 313 314 314 314 315 317 319 319 319 320 319 319 320 321 323 323 323 323 322 321 320 319 318 316 316 317 319 322 322 320 319 317 315 315 316 315 314 314 316 316 316 316 315 316 317 317 319 320 320 320 321 320 320 319 320 321 321 320 320 320 321 320 320 319 320 320 320 320 321 321 321 320 320 321 322 322 321 322 321 324 337 333 326 327
313 313 313 314 314 314 314 314 314 316 319 320 319 320 320 320 320 321 322 323 323 323 322 321 321 320 319 317 317 317 320 322 321 319 320 318 316 315 316 315 314 313 315 315 315 315 315 317 317 319 319 320 320 320 321 320 319 319 320 322 321 320 320 321 320 320 320 320 320 320 319 320 320 320 321 320 320 321 321 321 320 321 321 322 333 330 322 323
314 314 314 314 314 315 314 314 314 316 319 320 320 320 320 320 320 320 321 323 323 323 323 321 321 321 319 317 316 317 320 322 320 319 320 319 316 315 317 315 313 314 316 316 316 316 316 317 317 319 319 320 320 320 320 320 320 319 319 320 321 321 321 320 320 320 320 320 320 320 320 319 320 320 320 321 321 321 320 320 320 321 322 321 327 328 321 322
314 314 314 314 315 315 315 314 314 316 319 319 319 319 320 320 321 321 321 323 323 323 322 322 321 321 320 317 317 320 322 321 320 319 319 320 318 315 317 316 315 316 317 317 316 316 316 316 318 318 319 320 320 320 320 320 320 320 319 321 321 321 320 320 320 319 319 319 319 319 319 319 321 321 320 321 321 321 321 321 321 320 321 321 324 327 326 326
315 314 314 314 314 315 315 314 315 317 318 317 317 318 318 319 320 320 321 323 323 323 322 321 320 320 320 317 317 321 321 319 319 319 319 319 318 316 316 316 315 316 317 317 316 316 316 317 318 318 319 320 319 320 320 319 320 320 320 320 321 321 320 320 320 319 319 319 320 319 320 321 321 320 321 322 322 322 321 321 322 321 322 321 323 325 325 330
315 315 315 314 315 315 315 314 316 318 317 317 317 318 319 319 320 320 321 323 323 323 321 319 319 318 319 317 319 322 321 319 320 320 319 319 319 316 316 316 315 316 319 318 317 317 317 317 318 318 318 319 320 319 320 319 320 320 320 320 320 320 320 321 320 320 320 320 320 319 320 322 321 319 321 324 323 321 322 322 323 323 324 324 324 325 324 326
316 315 315 315 315 315 315 314 315 317 317 317 318 318 319 319 320 321 322 323 323 322 320 318 318 318 317 317 321 322 320 319 320 320 320 320 319 317 317 317 316 317 319 318 318 317 317 317 318 318 318 319 320 319 320 319 319 319 319 319 320 320 320 320 321 320 320 320 320 320 321 323 321 320 322 324 322 321 322 323 323 324 325 326 327 331 328 323
316 316 316 315 315 315 315 315 315 316 316 317 318 318 319 319 320 321 321 322 321 320 319 318 318 318 318 318 321 321 318 319 320 319 321 320 319 318 317 317 317 319 320 319 319 318 317 318 317 318 318 318 319 319 319 318 318 319 319 318 319 320 320 321 321 321 321 320 320 321 321 322 322 321 324 324 322 322 323 324 324 324 325 326 328 331 332 329
316 316 316 316 315 315 314 314 315 316 317 317 318 318 318 318 319 320 319 319 319 319 319 319 320 319 320 321 321 319 318 319 319 319 321 321 320 319 317 317 318 318 319 319 319 318 317 317 317 317 317 317 318 318 318 317 318 318 319 318 318 319 320 321 321 321 322 320 320 321 318 321 323 324 324 323 323 323 324 324 323 324 324 326 328 330 332 332
316 316 316 316 316 315 314 314 314 315 316 317 318 318 317 317 319 319 318 318 318 319 320 320 320 320 321 322 320 318 319 319 319 320 320 321 320 318 318 318 318 318 318 318 318 316 315 315 316 316 316 316 317 317 317 318 319 319 318 319 319 317 318 322 322 321 322 320 321 321 316 320 324 324 325 324 323 323 323 324 324 324 324 325 329 330 330 333
316 316 316 316 315 315 313 314 314 314 315 316 317 318 317 317 318 318 318 319 319 320 320 320 320 320 323 323 321 320 320 320 320 320 320 321 320 320 319 318 318 317 317 317 316 315 314 314 315 317 317 316 317 317 318 318 319 319 317 316 318 317 318 322 322 321 321 321 322 321 317 321 324 324 325 324 324 324 324 324 324 324 324 324 326 329 329 332
316 316 316 316 315 314 313 314 314 314 315 316 318 318 317 317 317 317 318 318 320 320 320 321 321 321 324 324 322 321 322 321 321 321 320 320 320 320 320 318 318 317 317 317 315 315 314 315 316 317 318 318 318 318 318 318 318 320 318 315 317 317 318 320 321 322 321 321 322 321 319 321 323 324 325 324 324 324 324 325 325 324 325 325 326 329 330 332
316 316 316 315 314 313 313 314 314 314 315 316 317 317 317 317 317 316 316 318 319 319 320 319 319 322 324 323 323 323 322 321 320 320 320 320 319 320 320 318 318 317 317 317 316 316 316 317 318 317 318 318 319 319 317 315 316 319 319 318 318 318 318 318 321 322 322 321 323 322 321 321 323 324 325 325 324 324 324 324 325 324 325 326 328 329 331 334
316 316 316 315 314 313 313 313 314 314 314 316 317 317 317 318 317 317 318 319 319 321 322 320 319 324 324 322 324 323 322 321 321 320 320 321 320 319 318 318 318 318 318 318 318 318 317 318 319 318 320 319 319 319 316 315 316 317 318 317 318 319 319 318 320 322 322 322 322 322 322 322 323 324 325 325 324 325 324 325 325 325 325 326 327 328 331 334
317 316 315 315 313 312 312 313 313 313 313 316 316 316 317 318 319 319 318 319 320 323 323 321 320 322 321 321 322 322 322 322 321 320 320 321 321 319 318 318 318 319 321 321 320 320 319 320 320 319 320 321 321 320 318 318 319 318 318 318 317 317 318 320 321 322 322 322 322 323 322 323 324 323 324 325 325 325 324 324 325 326 326 326 328 329 331 332
317 316 316 315 313 312 312 312 312 312 313 315 316 316 317 318 322 321 319 318 319 320 320 319 318 319 319 319 319 320 322 321 321 320 320 322 321 319 319 319 321 321 322 323 321 321 320 320 321 321 322 323 321 321 320 320 320 319 319 318 318 318 319 321 322 322 321 321 322 324 323 324 324 323 325 325 325 325 325 326 325 326 325 327 332 333 333 333
317 317 316 315 314 312 312 313 312 312 313 315 315 316 315 316 319 319 318 319 320 319 318 318 318 318 319 318 318 320 321 320 320 319 320 322 321 320 321 321 322 322 323 324 323 320 320 321 323 323 322 322 322 321 320 321 320 321 320 319 319 318 319 321 323 323 321 321 321 323 323 323 324 324 325 326 325 324 326 327 325 326 326 327 332 334 334 336
317 317 316 315 315 314 313 313 313 312 312 313 313 313 312 312 314 315 316 320 321 320 319 319 319 319 318 318 318 319 320 321 321 319 320 321 320 322 323 323 323 324 324 323 323 323 321 322 323 323 323 322 321 321 320 320 321 321 321 319 318 319 321 321 323 323 321 320 321 323 322 322 324 323 324 325 325 325 325 326 325 326 327 327 331 334 334 336
317 317 316 316 316 315 315 315 314 314 313 312 311 310 311 311 312 315 316 320 322 321 321 320 319 320 318 318 319 319 320 321 321 320 319 320 321 322 323 324 323 324 323 323 323 322 321 323 324 324 322 321 322 321 320 321 321 321 321 319 318 320 320 319 322 323 322 321 321 322 321 322 324 323 324 326 326 326 325 324 327 325 328 331 330 334 335 336
317 317 317 316 315 315 316 316 316 315 314 313 311 309 310 310 312 315 317 321 323 322 321 320 318 319 318 318 318 319 320 320 320 320 318 320 322 323 323 324 324 323 323 323 323 322 321 323 325 323 322 321 321 322 322 321 320 322 322 320 319 321 321 319 322 323 322 323 323 321 320 320 323 325 325 325 325 326 326 326 326 325 331 333 332 336 338 337
317 317 317 316 316 316 316 317 316 315 315 314 312 310 310 311 312 315 319 325 324 322 322 320 319 318 318 318 317 319 320 319 320 319 318 320 321 322 323 323 323 323 323 323 323 322 323 324 323 322 322 321 321 322 322 321 320 320 322 322 321 321 322 322 322 322 320 320 322 321 317 318 322 325 325 325 325 325 326 326 326 327 331 334 334 336 338 338
317 317 317 316 317 316 317 317 315 315 316 314 312 311 311 312 313 315 322 328 323 321 322 320 320 319 318 318 318 319 321 320 319 318 318 319 320 321 322 323 323 322 322 323 322 322 322 323 322 321 322 322 322 322 322 321 319 319 321 322 322 321 322 321 321 320 318 318 321 322 318 317 320 322 324 325 325 324 326 327 325 328 330 332 335 335 336 338
317 317 317 316 316 316 317 316 314 315 315 312 312 311 312 314 314 317 324 324 320 320 321 320 319 318 318 318 319 319 320 319 319 319 318 318 320 320 321 322 323 322 322 321 320 322 322 322 321 321 321 321 322 322 322 322 319 319 321 322 321 322 321 321 321 319 319 320 322 322 321 318 318 321 325 325 324 325 325 327 326 328 330 332 335 335 337 340
317 317 317 317 316 316 315 315 314 314 313 312 311 311 314 316 315 321 324 319 319 321 319 319 319 317 318 318 318 319 319 318 319 319 318 318 319 320 321 321 322 321 322 321 319 322 323 322 322 321 321 321 322 322 323 321 320 320 322 322 321 322 321 322 321 319 320 320 318 320 321 319 317 321 325 325 324 326 327 327 326 328 330 332 334 335 337 341
317 317 317 317 316 316 315 315 315 314 312 311 310 311 316 317 318 324 323 319 321 320 318 319 318 317 319 319 318 319 318 318 319 319 319 320 319 320 321 320 320 320 321 321 320 321 322 321 321 320 320 321 321 322 322 320 321 321 322 321 322 322 322 322 321 319 319 319 317 318 320 318 317 318 322 324 323 325 326 326 326 328 331 332 335 336 338 341
316 317 317 316 317 316 316 315 314 314 313 311 310 313 316 319 321 322 319 320 322 319 318 319 318 318 318 319 319 319 318 318 317 318 320 321 320 320 320 319 320 321 321 321 321 321 322 322 321 320 320 321 321 321 321 321 321 321 321 321 321 322 323 322 322 320 319 318 318 318 319 318 316 318 321 323 324 327 328 327 328 330 332 334 334 335 337 340
316 317 317 316 316 315 315 315 315 314 313 311 310 313 318 323 324 318 316 320 321 319 319 318 318 318 316 317 318 318 318 318 318 319 319 320 320 321 321 320 320 321 321 322 321 321 322 322 322 321 320 320 320 320 322 322 321 321 321 321 320 320 321 320 320 320 319 317 318 319 320 318 316 318 321 323 327 330 330 329 331 331 333 334 333 334 337 339
316 316 316 316 316 315 315 315 315 315 314 313 310 314 322 323 319 318 318 320 320 320 319 317 317 317 316 316 317 316 317 317 318 318 318 319 320 319 319 319 320 319 318 320 321 320 320 321 321 321 320 320 320 320 321 322 321 322 321 320 319 317 319 319 318 318 317 317 318 320 320 318 317 319 322 325 328 330 331 332 332 332 333 333 332 332 335 337
316 316 316 316 315 315 315 315 315 315 315 312 312 318 323 318 317 320 320 320 320 319 317 317 317 316 316 316 316 316 317 316 317 318 318 319 320 319 318 318 319 318 318 319 319 318 319 321 320 320 320 320 320 319 319 320 320 320 320 318 318 317 319 320 319 318 317 318 318 320 320 318 318 319 323 327 329 330 332 332 332 332 331 331 332 332 332 335
316 316 316 316 316 315 316 315 315 315 314 313 317 322 320 316 318 322 320 318 318 317 317 317 316 316 316 316 315 316 317 317 317 317 318 319 319 320 319 317 318 318 319 319 319 317 317 318 319 320 320 319 319 319 318 319 319 320 320 319 318 318 319 320 319 318 318 318 318 319 319 318 317 320 326 329 329 330 330 330 330 330 330 330 330 331 331 332
316 316 316 316 316 316 315 315 315 315 313 315 321 321 318 318 321 321 319 317 316 316 317 316 316 317 317 316 316 316 316 317 318 317 318 318 318 319 318 317 317 318 318 318 318 318 317 317 319 320 319 318 319 319 319 319 318 321 321 319 318 318 318 318 318 319 319 319 319 319 318 320 321 322 327 329 330 329 329 328 329 328 328 328 328 328 330 331
316 316 317 316 316 316 315 315 315 314 314 318 322 319 317 319 320 318 317 316 315 316 317 317 317 317 317 316 316 317 317 317 318 318 318 317 317 317 317 316 316 317 317 317 318 318 317 317 319 319 319 318 318 318 318 318 318 319 319 317 318 319 318 318 317 319 320 320 320 318 317 319 321 321 325 327 328 328 328 327 327 327 326 326 326 326 327 329
316 316 317 316 316 316 315 315 315 314 317 322 321 319 318 318 316 316 316 315 315 316 317 318 317 317 317 317 317 317 318 318 318 318 318 317 317 316 316 316 316 317 317 317 317 318 317 317 318 317 318 318 319 318 318 319 318 317 317 317 318 319 319 318 318 319 319 319 319 316 316 317 317 319 323 325 325 326 326 326 327 326 326 325 325 325 325 327
315 317 317 316 316 315 315 316 314 316 320 321 319 317 318 317 316 316 315 314 315 316 317 318 317 317 317 317 317 317 317 318 318 318 318 317 317 316 315 316 316 316 317 317 318 318 317 317 318 317 317 318 318 317 317 319 319 318 318 318 317 317 318 317 318 319 319 319 319 317 315 316 315 317 321 324 324 325 324 325 326 325 324 324 323 323 324 326
315 318 319 316 315 315 315 315 316 319 321 320 318 318 317 316 316 315 314 314 316 316 318 318 317 318 318 317 317 318 317 317 318 318 318 317 318 315 314 314 315 316 317 317 317 317 317 318 318 317 317 317 316 316 316 317 318 318 318 317 317 318 317 317 318 318 318 318 319 318 316 315 317 321 323 324 325 324 323 322 323 324 323 322 322 322 322 324
315 319 319 316 315 315 315 316 318 320 320 319 319 318 316 316 316 315 313 313 315 316 317 318 317 318 319 317 317 318 318 318 317 318 318 317 317 315 312 313 313 314 316 317 317 316 316 317 318 317 316 316 317 317 316 315 316 316 316 316 317 318 318 318 318 316 316 317 318 318 317 316 318 323 324 323 324 323 322 321 321 323 323 321 322 323 323 323
315 320 320 316 315 315 316 317 317 318 318 318 317 316 315 316 315 315 313 313 314 315 314 316 317 318 319 318 318 318 318 318 317 318 317 317 317 315 312 311 312 313 315 316 316 315 314 315 315 315 316 316 317 317 316 315 315 316 316 316 317 318 318 318 318 316 316 316 316 318 318 317 318 322 322 321 322 321 321 322 322 322 322 321 320 321 323 324
316 319 318 315 315 316 318 319 317 318 318 316 315 314 314 314 314 314 314 313 314 315 314 315 316 317 318 317 318 318 317 317 317 317 317 317 317 315 311 310 311 313 315 315 315 314 313 314 315 316 317 316 316 315 315 316 315 315 316 317 317 317 317 317 318 317 316 316 316 317 318 318 318 321 321 321 321 321 321 322 322 322 321 321 320 319 321 322
315 316 316 315 315 315 318 318 316 317 316 313 312 312 313 313 313 313 313 313 314 314 315 315 315 316 317 316 317 318 317 317 316 316 317 316 315 314 311 309 310 313 315 314 314 313 312 315 317 316 315 314 315 315 315 315 316 316 316 316 316 315 314 315 316 316 317 317 316 317 318 318 317 320 322 321 319 319 320 320 320 319 319 319 319 319 319 319
312 314 315 315 314 315 317 317 316 316 315 313 313 313 312 313 312 312 312 313 313 314 315 315 314 315 316 316 316 317 317 316 316 316 316 316 315 313 311 310 309 312 314 313 312 312 312 314 315 314 314 315 315 315 315 315 315 315 315 315 314 313 313 313 313 313 315 315 315 316 317 317 316 319 320 319 317 316 318 317 317 318 318 318 317 318 318 319
313 315 316 315 314 314 315 314 315 316 315 314 314 313 313 312 311 310 311 311 311 313 314 314 313 314 314 314 315 316 316 315 316 316 315 314 314 313 311 309 309 310 313 312 311 311 311 313 313 312 313 314 315 314 314 314 313 313 313 312 312 312 312 312 312 312 312 312 312 313 314 314 314 315 314 315 315 315 316 316 315 315 316 315 315 316 317 317
314 316 316 316 314 313 312 311 313 314 314 314 314 313 313 313 311 309 310 311 311 311 312 312 312 313 313 314 315 315 315 314 314 315 314 314 313 312 310 309 308 310 312 312 310 310 311 312 312 312 312 313 313 312 312 311 312 312 311 311 310 310 310 311 311 310 311 311 310 311 311 312 312 312 311 313 313 313 314 314 313 313 313 313 314 315 315 315
313 315 315 315 315 315 313 312 312 313 313 313 314 314 313 313 312 310 310 311 311 310 311 311 311 312 313 313 314 315 314 313 312 313 314 313 312 311 310 309 309 310 311 311 310 310 310 310 311 311 311 311 311 311 311 311 311 311 310 310 310 310 310 310 310 310 310 310 310 310 310 310 310 310 312 312 311 311 312 312 311 311 311 311 312 313 314 314
312 314 314 311 313 316 315 313 312 312 312 312 313 314 313 312 312 312 311 310 309 310 311 311 310 310 311 312 312 313 314 313 313 313 313 311 310 310 309 309 309 310 310 311 310 310 309 309 310 311 311 311 311 310 310 310 310 310 309 309 309 309 309 310 309 309 309 309 309 310 310 310 310 310 310 310 309 309 310 309 310 309 309 310 311 311 312 313
311 312 312 310 312 315 314 311 310 311 312 312 313 313 313 313 313 312 311 311 311 310 310 311 311 309 308 309 311 312 313 312 312 313 312 310 309 309 309 309 310 309 309 309 309 310 309 309 311 311 311 311 310 309 309 309 309 309 309 308 308 308 308 309 309 309 309 310 309 309 310 310 310 309 308 308 308 308 308 307 307 307 307 308 310 309 309 310
310 311 312 310 311 313 312 310 310 311 312 312 312 313 313 313 313 311 310 310 312 311 310 310 311 308 308 308 309 311 311 310 310 311 310 309 309 309 309 309 309 308 308 307 308 309 309 309 309 310 309 309 309 308 308 308 308 308 308 308 308 308 308 308 309 309 309 309 309 309 309 308 308 308 308 307 307 306 306 307 307 306 306 307 309 308 308 308
306 307 308 309 312 312 311 311 311 311 312 312 312 313 312 311 311 311 310 309 309 311 310 310 310 309 308 308 309 310 309 308 308 308 308 307 307 307 307 307 307 307 307 307 308 309 308 308 309 309 308 309 309 308 308 308 308 308 308 308 308 308 308 307 307 308 307 307 307 307 306 306 306 307 307 306 306 305 305 305 305 305 304 305 307 308 307 307
306 305 305 307 310 312 313 313 312 311 313 314 313 312 312 311 310 310 309 308 307 308 308 309 309 309 309 310 309 308 307 306 306 306 306 305 305 305 305 306 306 306 305 306 306 307 307 307 307 308 307 308 308 308 308 307 307 307 308 308 308 308 307 305 305 305 305 306 306 305 305 305 305 305 305 305 304 305 304 304 303 303 302 303 306 306 306 306
Wind_Speed
18 18 18 18 18 18 18 18 18 17 16 16 17 17 16 15 15 14 14 13 12 11 10 9 9 9 9 9 9 8 9 10 11 10 6 5 3 6 11 15 15 16 15 14 12 12 12 11 11 10 8 6 5 4 3 3 4 5 4 3 3 2 4 7 7 8 9 11 13 16 18 14 13 15 14 13 12 12 11 12 11 11 14 14 17 22 22 18
19 19 19 19 18 18 18 18 18 18 17 16 16 16 15 15 15 14 14 13 12 11 10 9 8 9 9 8 9 8 9 10 8 5 4 4 1 7 12 15 16 15 15 15 14 14 13 12 12 11 9 7 5 3 3 3 4 5 3 4 3 4 6 6 8 9 10 13 16 18 19 16 15 16 14 13 14 15 13 13 11 11 13 14 20 24 24 24
20 19 19 19 19 19 18 18 18 18 17 16 15 15 14 14 14 14 13 13 12 11 10 9 8 8 8 8 8 8 9 7 3 3 4 4 2 8 12 14 14 13 14 14 14 12 11 11 12 11 8 7 4 3 4 3 4 3 3 5 3 7 8 7 8 10 13 15 18 19 19 19 17 15 12 13 17 18 14 11 10 10 11 12 18 20 20 23
21 21 21 21 21 20 20 19 18 18 17 16 15 14 14 13 13 13 13 12 11 10 9 9 8 8 8 8 8 7 8 3 3 4 5 5 4 8 12 13 13 13 13 13 13 11 9 10 12 9 7 6 4 5 5 3 2 2 4 7 7 10 10 9 10 12 15 17 18 19 19 19 18 16 14 16 16 14 11 9 10 12 14 11 12 15 17 19
22 21 21 22 22 21 21 20 19 18 16 15 14 14 14 13 13 12 12 11 11 10 9 8 7 8 8 7 7 7 7 2 5 4 4 7 4 8 11 13 15 15 13 13 13 11 10 11 10 9 9 6 4 6 4 2 3 4 6 8 9 11 10 13 15 16 17 17 19 18 17 17 18 17 16 16 13 12 14 15 16 16 16 12 6 11 16 17
22 22 22 22 22 22 21 20 19 18 16 15 14 14 14 14 13 12 11 10 10 10 9 8 7 7 7 6 6 5 6 1 4 2 1 4 4 8 10 12 15 15 14 14 13 12 11 11 11 10 9 6 4 5 1 1 3 5 7 8 10 11 11 16 18 18 18 18 19 17 16 17 17 16 14 15 14 16 18 18 18 16 15 11 7 15 19 18
23 23 23 23 23 22 21 21 20 18 16 14 13 13 13 14 13 12 10 9 9 10 9 8 6 6 7 6 5 4 3 2 1 4 4 1 4 8 10 12 14 15 14 13 13 12 11 11 12 9 8 6 4 4 2 3 6 7 8 8 10 13 14 17 20 21 20 18 18 16 15 15 15 13 12 12 12 13 15 14 14 13 12 11 10 17 22 20
23 23 24 24 24 23 22 22 21 17 14 13 12 12 12 13 13 11 9 8 8 9 8 8 6 5 6 5 4 3 2 2 0 2 3 3 6 9 11 12 14 15 13 13 13 11 11 11 11 8 7 5 2 4 3 6 9 8 8 10 12 16 17 19 21 19 18 15 13 13 12 14 13 12 12 11 9 9 11 12 11 10 9 11 12 16 19 19
23 24 24 25 24 23 22 22 20 16 13 13 12 12 13 12 12 10 8 6 7 7 7 7 4 3 4 3 5 4 4 4 2 2 3 5 8 9 11 12 13 14 12 11 11 10 10 10 9 7 7 6 4 6 4 6 6 3 8 13 15 18 19 20 18 14 14 12 9 9 11 13 10 9 9 6 8 9 10 11 8 7 7 9 11 13 16 16
24 25 25 25 25 24 23 22 19 16 15 15 13 13 13 12 10 7 5 4 5 6 6 5 3 2 2 1 6 3 5 5 3 4 4 7 9 10 11 11 11 12 11 10 10 10 9 7 6 5 7 7 6 7 5 6 7 8 13 16 16 20 20 17 14 11 12 9 6 8 12 14 6 4 4 4 9 10 11 10 7 7 6 7 9 10 13 15
25 25 26 26 25 24 23 21 19 17 17 17 15 15 14 12 8 4 3 3 4 4 4 3 2 1 1 2 6 1 5 5 3 5 3 8 10 10 10 9 9 10 9 8 8 8 7 5 3 4 5 4 4 7 8 8 9 11 15 16 17 19 17 12 9 9 9 5 5 10 17 14 4 5 3 8 11 10 12 12 7 6 6 7 8 9 11 13
27 27 27 26 26 25 23 21 20 19 19 18 17 16 13 8 5 3 2 2 2 3 3 2 1 0 1 3 4 1 3 5 3 3 3 8 12 11 11 9 8 9 6 5 6 7 7 5 5 8 5 2 4 6 5 5 9 13 15 15 15 16 11 5 5 8 8 4 7 14 15 8 8 4 5 7 11 12 12 11 8 7 6 6 7 8 10 11
28 28 28 27 27 26 23 22 21 21 20 19 19 15 9 6 5 3 3 3 4 4 4 3 2 1 1 2 2 1 2 3 3 2 3 8 12 11 11 10 9 8 6 4 4 6 6 6 7 9 7 6 8 6 6 9 12 13 14 11 11 12 4 2 3 8 7 3 8 13 9 4 4 3 8 6 11 14 13 12 10 8 5 5 6 7 9 10
30 29 29 28 28 25 23 22 23 23 21 21 19 12 8 7 6 5 5 4 4 5 5 4 3 3 2 1 2 2 2 2 3 3 4 7 11 12 11 10 8 7 6 3 3 5 6 5 6 7 8 9 9 8 10 13 11 9 11 9 7 7 2 3 3 6 6 2 8 12 7 5 6 8 9 8 11 12 13 13 12 10 6 5 5 7 8 10
32 31 29 29 28 25 23 24 24 24 23 23 17 10 9 7 6 6 4 4 4 4 5 5 5 4 2 3 2 2 5 5 4 4 5 7 8 10 10 9 7 5 4 3 3 3 4 5 5 7 6 6 8 9 9 9 8 7 8 7 5 5 5 4 1 2 6 5 9 8 6 7 8 11 13 11 10 10 12 13 12 10 7 6 5 6 7 9
34 32 30 30 28 25 24 25 26 25 26 24 17 11 10 7 5 6 5 3 2 4 6 5 5 4 1 3 5 5 7 6 5 5 6 8 7 7 9 8 6 5 4 3 3 3 4 5 6 7 6 6 7 8 7 7 7 6 4 6 6 6 7 4 1 2 4 8 6 4 5 8 8 13 16 12 10 10 11 11 11 10 8 7 5 5 6 6
35 33 31 30 28 25 25 27 26 26 28 25 17 13 11 10 10 10 9 5 4 6 8 7 4 3 2 4 5 7 7 5 5 5 4 8 8 7 8 7 6 5 4 4 3 3 4 5 5 5 6 7 6 6 6 6 5 3 3 6 7 7 7 7 3 2 2 9 7 5 7 8 8 12 15 13 9 10 12 10 9 9 8 8 7 6 5 3
36 34 31 30 27 25 26 27 26 27 30 26 16 12 11 14 16 17 15 11 8 5 6 10 5 3 4 4 3 5 5 3 3 2 2 7 9 8 7 6 7 7 6 5 4 5 5 5 5 5 5 6 6 6 6 6 6 6 6 6 7 8 8 8 7 3 5 10 9 9 9 9 10 11 12 13 9 9 11 9 9 9 8 8 9 7 6 4
37 34 32 30 27 25 26 27 26 27 30 25 15 10 10 12 13 17 20 15 10 5 3 9 7 2 2 4 4 2 4 1 2 1 1 6 9 10 7 6 8 7 7 5 6 7 5 5 6 6 5 5 4 5 7 8 9 10 9 9 9 9 9 9 10 6 5 9 10 10 9 9 11 11 11 13 10 9 9 8 10 10 8 8 9 8 8 9
37 35 32 30 26 24 26 27 26 26 27 25 17 12 10 10 6 10 16 14 13 11 6 8 8 6 7 8 7 5 5 1 0 1 1 4 8 9 8 8 8 8 8 5 3 4 4 5 5 5 5 5 5 5 8 9 9 10 10 10 10 10 10 9 10 5 1 7 10 10 11 11 12 11 10 11 10 9 8 9 11 11 11 9 7 9 10 11
38 36 32 29 27 23 24 26 26 25 25 25 22 18 13 10 5 4 9 9 12 14 11 12 13 10 11 12 8 1 2 1 1 2 1 2 7 9 8 9 8 7 6 5 2 2 4 7 6 4 5 6 6 6 7 8 9 9 9 9 9 9 9 10 12 6 2 6 10 12 14 13 13 13 11 12 10 8 8 10 12 12 14 11 7 10 12 11
38 36 33 29 27 23 22 25 25 24 24 25 26 23 16 11 8 5 5 3 8 12 13 14 16 13 13 16 14 7 2 0 3 4 1 2 7 8 6 8 9 5 3 4 5 4 5 7 4 4 6 5 5 5 6 9 9 9 8 8 8 8 9 10 10 4 3 5 9 13 14 14 15 14 13 13 10 9 10 11 12 13 14 13 10 10 13 12
38 37 34 30 27 23 20 21 24 23 24 25 26 24 17 12 10 7 3 1 3 10 11 12 15 14 13 14 14 10 7 6 4 3 2 2 6 6 5 7 8 6 3 5 6 5 6 3 4 6 6 6 7 5 7 8 8 8 6 7 7 8 9 8 8 5 3 7 11 13 13 12 14 13 11 11 9 9 12 11 11 12 10 10 9 8 11 13
37 37 35 31 27 24 19 19 24 24 23 25 24 23 17 11 10 7 2 3 1 7 9 11 14 15 15 14 13 9 7 9 9 8 4 3 3 4 5 5 7 7 5 6 7 8 10 7 8 7 6 7 8 7 8 7 6 7 7 8 8 10 11 10 11 11 10 12 10 10 11 9 9 7 6 8 8 9 10 8 9 8 3 5 7 6 8 12
36 36 34 31 26 24 20 19 25 25 22 22 24 22 16 10 8 5 0 4 2 5 7 9 9 14 16 15 14 6 2 7 12 11 5 2 3 3 3 3 5 5 3 4 6 9 8 6 7 7 7 7 8 9 8 5 6 7 6 7 8 12 14 13 15 11 10 9 3 2 8 7 6 7 7 8 7 8 8 5 7 4 4 5 7 8 9 12
35 35 34 31 26 25 21 17 24 25 19 20 24 22 15 10 7 3 1 4 3 5 7 8 6 11 15 13 14 5 4 6 11 13 8 1 2 4 4 1 4 4 5 4 6 6 3 4 4 6 8 8 9 9 5 3 7 7 5 9 10 13 15 14 16 11 8 8 2 3 9 7 6 9 9 7 6 8 5 2 6 3 7 8 10 11 12 14
34 34 33 30 26 25 22 18 23 23 17 20 23 19 13 9 5 2 2 4 4 5 7 9 6 9 13 12 14 5 2 5 5 10 13 2 1 3 6 3 3 3 2 4 6 1 1 3 3 6 9 9 9 7 3 4 8 8 9 12 13 14 15 15 14 10 8 9 8 10 10 6 7 7 5 6 7 7 3 1 5 4 10 12 12 13 14 14
33 33 32 29 25 25 23 20 22 21 20 22 21 17 11 6 2 1 3 3 4 5 5 8 6 9 13 9 10 7 5 9 4 8 13 5 3 4 6 4 5 5 2 5 6 1 1 5 7 9 10 8 9 10 10 9 9 10 11 13 14 14 15 14 12 10 9 8 8 10 9 7 7 4 2 4 6 5 1 4 6 7 11 13 13 15 15 14
32 32 31 28 24 24 23 21 23 23 23 22 20 16 9 2 1 3 3 1 3 3 3 7 6 10 14 6 7 10 9 10 7 7 8 6 7 4 4 4 6 8 5 6 9 6 5 7 9 10 9 8 11 13 13 11 10 11 14 14 14 14 13 11 9 9 9 8 10 9 5 4 6 6 3 2 3 3 4 7 7 9 11 11 13 15 16 16
31 31 30 26 24 26 24 21 23 24 23 21 19 15 6 1 2 3 1 3 2 4 4 7 7 10 14 6 6 9 8 10 9 6 4 6 9 6 2 3 6 8 7 7 8 9 10 8 5 4 6 9 12 14 13 10 10 12 13 13 13 11 10 8 7 7 7 8 8 3 1 4 7 5 3 3 2 4 6 7 8 12 13 12 14 15 16 17
30 31 28 24 24 26 25 21 21 23 22 21 18 12 3 2 2 0 4 2 2 5 5 5 8 9 10 7 6 8 7 8 10 7 5 4 7 10 5 1 5 7 6 5 4 5 10 8 2 4 7 12 11 11 10 7 7 8 9 10 9 8 8 7 6 6 6 7 3 4 2 6 7 4 6 8 5 8 6 7 8 12 14 14 14 14 15 15
29 30 26 22 23 24 23 22 23 22 20 20 16 8 3 2 2 3 3 1 2 4 5 5 9 9 5 4 7 8 5 6 10 8 6 4 4 10 8 5 6 6 3 3 4 6 8 3 5 3 4 13 11 8 6 5 5 6 7 8 8 7 6 6 7 6 7 9 4 4 5 6 8 9 12 9 6 9 6 5 6 9 13 14 14 14 14 15
29 29 23 20 23 23 22 21 21 20 18 17 11 3 4 2 4 3 3 3 1 3 4 5 7 7 4 2 6 7 3 5 10 7 5 4 2 7 9 10 9 4 3 6 5 6 5 3 7 1 1 10 9 5 6 6 6 8 7 6 7 7 7 7 7 6 8 8 6 6 6 7 10 9 5 3 7 8 5 5 5 8 10 12 13 14 15 15
28 28 21 18 22 22 21 20 19 18 15 13 7 4 1 4 3 1 2 4 3 3 5 6 6 3 2 3 5 7 3 4 8 7 5 3 1 4 6 10 11 6 5 5 2 4 6 2 4 4 3 7 7 5 6 7 9 9 6 5 7 7 7 7 7 8 9 9 10 11 9 8 7 2 5 6 8 8 7 6 5 6 9 11 13 14 15 15
28 25 18 18 23 22 23 21 17 14 12 8 5 1 4 4 2 0 2 3 3 4 7 6 5 3 3 4 4 6 4 4 7 7 4 4 3 4 5 7 10 9 6 4 2 3 6 4 3 7 8 6 5 7 7 8 8 5 3 6 7 4 4 6 8 11 11 11 10 9 8 7 7 4 3 6 7 9 8 7 6 8 10 12 13 14 15 14
28 23 16 19 25 25 24 20 13 11 9 5 1 4 4 2 2 1 2 4 3 5 8 5 2 2 1 1 1 5 4 4 7 6 2 5 5 6 6 5 8 9 6 5 4 3 4 4 6 12 11 5 5 10 8 7 7 4 4 7 6 6 5 7 10 10 9 10 9 8 9 8 8 7 5 8 5 5 7 8 8 10 11 12 13 14 15 14
29 23 16 21 28 28 23 17 11 8 5 3 2 5 2 2 3 2 2 5 4 4 7 3 2 2 2 1 1 5 6 4 4 6 2 2 3 5 5 4 7 9 7 5 3 2 4 8 8 10 10 5 8 14 12 9 7 6 7 7 8 7 7 6 8 7 7 10 9 10 13 11 9 7 5 8 6 2 7 8 7 8 10 12 13 15 16 15
29 20 14 23 31 27 20 15 11 6 3 3 6 4 1 2 3 2 4 5 4 3 5 3 2 1 2 4 2 4 6 5 3 5 3 0 1 4 4 3 7 9 8 6 5 2 5 9 6 4 6 9 11 13 11 7 8 8 9 7 6 7 6 5 7 7 9 11 9 13 16 12 10 9 5 5 2 5 7 6 5 7 10 12 13 16 18 16
27 15 10 24 29 22 17 15 11 5 2 4 5 3 1 3 4 3 4 5 4 4 4 1 2 1 1 4 4 3 3 5 5 3 2 2 2 4 5 3 4 8 9 7 6 4 5 7 4 2 3 10 10 7 7 4 5 9 10 8 5 4 6 7 6 7 10 11 11 14 15 10 7 5 2 2 4 6 8 8 7 9 11 15 16 18 20 19
24 11 8 24 25 17 16 15 13 8 4 5 4 3 2 2 2 2 4 4 3 3 3 1 2 3 2 3 3 2 3 4 4 3 2 2 1 4 7 6 6 8 10 7 4 4 4 5 5 5 7 10 6 3 6 8 8 8 8 7 5 3 5 6 6 7 9 10 10 11 13 9 3 5 4 6 7 7 9 9 9 10 12 15 17 17 17 17
20 7 7 23 22 14 14 13 12 8 3 4 4 4 3 1 2 2 2 3 3 2 2 2 3 3 2 3 2 1 4 5 4 3 2 1 0 1 6 8 9 9 9 7 3 3 4 4 7 8 8 8 6 6 10 11 9 7 6 6 4 4 5 6 8 8 7 9 10 10 13 11 2 3 5 8 8 9 11 11 11 13 15 16 18 17 15 14
16 6 9 21 20 14 11 7 6 5 2 4 3 2 2 2 3 3 2 3 3 2 2 2 1 2 2 3 3 2 4 5 4 3 2 1 1 2 6 10 10 9 7 6 4 4 4 5 7 8 8 9 9 10 10 7 6 6 5 3 2 3 5 5 8 9 8 12 12 10 14 13 6 5 7 7 8 11 14 15 15 18 19 20 22 21 17 15
12 9 10 18 17 13 9 4 4 4 4 3 1 1 1 1 2 2 2 2 2 1 2 2 1 1 1 1 3 2 3 4 4 3 1 0 2 5 6 10 11 8 6 5 4 6 6 5 6 8 9 8 6 6 4 3 4 5 3 2 4 6 7 8 10 10 10 13 12 12 14 13 9 7 4 7 13 17 19 20 22 23 23 23 24 24 23 22
14 12 9 15 16 11 6 4 4 4 3 2 1 2 1 0 2 3 2 3 3 2 2 1 1 1 0 1 2 2 2 2 2 1 1 2 2 6 4 9 11 7 5 4 5 7 6 4 6 9 9 5 2 3 3 3 4 5 5 7 9 11 13 12 10 9 10 14 15 14 13 12 11 10 8 12 19 21 21 23 26 25 24 25 25 26 26 27
13 9 5 11 15 12 8 4 4 3 2 1 1 1 1 2 1 2 3 3 3 3 2 1 0 1 0 1 2 2 1 3 2 1 1 2 2 5 2 8 9 7 5 4 5 7 5 4 6 7 8 8 6 5 5 5 6 7 9 11 12 13 14 12 9 9 10 12 15 14 13 14 15 17 18 17 18 19 21 25 27 27 28 29 29 28 27 28
8 5 3 7 9 10 9 5 4 3 2 2 1 1 2 2 2 0 2 2 1 1 2 1 1 2 2 2 3 3 2 3 3 2 3 3 0 2 3 9 8 6 3 2 5 7 5 5 6 8 9 10 11 12 12 12 11 11 13 15 14 13 14 11 9 10 10 12 14 15 16 18 19 20 20 17 17 18 19 23 26 26 28 29 28 28 28 28
5 3 4 5 4 4 5 5 4 2 1 2 2 1 2 3 1 2 2 1 1 0 1 1 1 3 2 1 3 3 2 3 4 4 4 4 4 4 7 10 9 3 2 2 4 5 4 6 8 12 13 13 15 16 15 14 14 15 16 16 14 12 12 11 11 13 13 12 13 14 18 21 21 20 19 17 17 16 17 22 25 26 27 27 27 27 27 26
4 2 3 3 3 2 2 3 4 2 1 2 1 1 3 4 3 2 2 2 1 2 2 2 2 1 0 1 3 3 3 4 4 3 2 3 5 7 8 9 5 1 3 4 4 5 5 7 9 11 14 14 15 16 16 15 15 15 15 15 13 11 12 14 16 17 16 14 16 19 21 22 19 15 14 14 15 15 18 21 24 26 27 27 26 26 26 25
5 4 3 4 4 3 3 2 2 2 3 3 2 3 5 5 4 3 1 2 4 3 3 4 3 1 1 1 3 4 3 4 3 1 1 4 6 6 7 6 1 2 1 5 6 6 5 5 6 9 13 14 15 15 14 14 14 13 14 14 14 15 16 17 18 19 18 18 19 21 21 20 15 8 9 14 17 18 20 22 24 25 27 28 26 25 26 25
6 6 4 5 6 5 3 2 3 4 3 4 3 4 5 6 5 4 3 4 4 3 3 4 3 2 1 1 3 3 1 2 4 3 2 4 5 5 4 3 1 2 6 6 5 5 4 5 8 10 11 12 12 11 10 11 13 15 17 18 18 18 17 15 14 15 15 17 19 20 21 19 12 9 13 19 21 21 22 23 24 25 27 28 28 26 26 26
11 11 9 8 6 4 4 4 5 4 4 5 5 4 5 7 7 6 4 4 4 3 2 3 3 3 2 3 5 4 2 1 5 6 7 7 8 7 5 4 5 7 7 6 5 4 5 7 8 9 10 10 8 9 12 15 16 18 19 16 13 12 11 12 13 14 15 17 20 20 18 14 12 15 19 21 22 23 23 23 24 25 27 28 26 25 26 27
13 11 9 8 5 4 5 5 5 5 4 4 5 6 6 6 8 8 5 4 5 3 2 4 3 3 4 5 5 4 4 4 7 9 11 12 13 13 12 12 12 10 7 6 6 5 5 7 6 6 9 10 9 12 16 16 15 13 8 3 4 8 13 17 18 18 17 16 15 15 14 13 15 18 18 18 19 20 20 22 23 24 27 26 22 21 25 28
Wind_Direction
352 349 346 344 341 339 336 333 328 324 320 316 314 313 314 316 319 322 327 333 336 336 332 331 326 324 328 324 319 316 320 322 324 328 326 322 269 201 178 180 185 183 178 171 174 175 163 169 172 167 171 178 196 190 199 236 256 261 265 288 299 338 0 0 341 331 327 317 321 327 329 327 320 324 326 320 304 296 294 282 273 253 248 251 256 259 257 258
354 350 348 346 344 343 340 338 333 329 326 321 316 313 312 312 313 316 321 326 332 335 330 327 322 321 327 327 326 321 322 330 337 2 3 346 232 189 176 174 183 185 174 170 170 167 167 172 172 173 184 192 190 200 223 217 251 267 288 286 293 354 352 343 321 318 319 314 318 317 319 321 313 316 319 313 308 305 295 287 283 259 251 242 252 265 261 256
354 351 349 346 346 346 344 342 338 335 330 325 320 315 313 310 310 311 314 319 325 331 329 324 318 316 322 329 330 325 330 342 29 70 23 15 153 181 176 169 178 180 170 171 172 171 173 172 175 179 197 210 188 215 231 201 243 263 292 279 318 349 331 324 313 309 313 313 312 310 315 312 308 316 312 304 304 303 294 287 291 277 274 251 243 264 269 258
355 351 349 347 347 346 345 344 342 339 334 328 323 318 316 311 308 308 309 314 317 324 326 320 314 310 316 328 330 331 332 327 128 100 52 55 121 171 173 164 165 168 165 173 175 176 178 173 180 188 215 220 186 233 241 194 255 280 280 291 330 333 317 321 320 310 310 309 306 304 305 302 308 314 301 300 303 298 294 293 301 294 299 290 240 255 272 262
354 351 349 347 347 347 346 345 344 341 337 332 327 324 321 316 311 305 304 307 309 316 320 318 311 304 310 322 329 332 316 268 132 114 59 56 104 164 172 162 159 162 165 175 175 174 176 175 184 199 225 233 200 225 228 181 275 283 266 287 316 319 313 318 319 313 310 305 300 297 296 300 305 303 296 298 294 291 302 307 309 302 300 306 253 259 275 265
355 351 349 348 348 349 348 347 345 343 342 339 334 331 326 320 314 304 298 298 302 309 314 317 308 300 305 312 326 326 305 333 113 199 302 44 114 160 172 162 160 163 165 173 171 172 176 180 195 205 222 238 229 238 277 186 253 279 277 291 307 314 310 310 313 310 310 302 295 295 295 298 295 296 301 297 286 289 303 308 308 303 296 297 264 267 276 267
355 352 349 350 350 351 351 349 347 346 347 345 341 335 326 320 312 302 292 289 296 303 310 317 306 296 297 304 323 312 291 5 60 242 246 233 141 160 173 161 160 164 165 173 173 180 184 190 206 215 230 239 241 253 287 266 253 265 285 297 304 310 307 306 309 309 309 300 293 295 293 288 285 297 309 303 299 300 308 313 310 304 292 284 264 266 274 268
356 353 351 352 353 353 353 352 350 350 352 352 346 337 327 318 311 301 288 285 293 300 310 315 307 292 286 295 303 269 203 122 23 235 223 197 155 161 173 166 166 168 172 180 180 187 192 201 212 219 240 249 273 264 276 282 257 244 278 301 305 306 307 308 310 312 311 302 297 295 285 283 288 300 299 298 320 324 316 317 312 308 291 278 268 266 270 264
358 355 354 354 355 355 355 355 355 356 358 354 347 338 329 321 314 302 284 283 292 303 317 319 313 278 275 286 273 254 148 141 135 127 171 171 157 162 173 176 175 174 182 188 188 196 202 213 218 228 261 277 288 273 273 280 268 269 295 302 306 304 305 308 310 316 316 307 298 291 286 292 299 296 277 283 325 322 315 313 308 304 287 275 269 267 268 260
0 357 357 357 357 357 357 358 359 359 357 351 344 337 331 325 321 308 286 286 299 313 323 326 331 268 259 257 259 244 127 152 127 101 157 168 161 162 171 183 183 181 189 194 197 205 213 227 220 234 269 271 265 265 256 262 294 310 299 298 300 298 301 304 305 314 319 311 296 295 296 300 300 265 276 2 338 322 321 321 316 299 283 269 261 260 265 258
2 360 359 359 359 359 360 0 0 358 354 349 343 338 335 331 329 319 297 297 309 324 336 346 351 274 175 212 259 259 126 177 141 93 150 169 169 171 172 180 182 184 191 198 205 209 220 232 214 226 253 256 250 258 249 256 286 294 295 297 293 294 297 294 302 320 321 318 324 314 300 293 232 216 308 2 341 332 326 322 322 302 283 268 254 246 255 258
3 2 1 1 1 1 3 4 2 358 356 351 344 341 342 348 354 345 325 335 347 5 25 30 12 284 153 212 262 280 171 196 170 98 135 169 173 174 175 178 182 188 193 204 210 207 213 210 209 234 253 283 268 270 264 266 281 285 290 292 291 294 287 265 306 329 318 320 346 325 302 266 189 203 5 5 337 339 328 324 327 311 291 270 254 242 248 254
5 4 4 3 2 4 6 8 5 1 360 355 348 347 359 29 37 45 64 59 50 47 53 58 59 112 149 199 189 130 173 197 198 152 131 164 171 171 180 184 183 189 195 210 211 197 201 199 214 244 261 264 263 284 304 283 274 279 285 284 292 291 255 160 330 325 318 331 350 329 305 251 206 333 18 6 336 340 332 329 331 322 313 282 260 247 246 246
8 6 6 5 4 7 9 10 7 4 3 358 354 2 34 52 53 59 62 60 57 48 54 64 68 95 116 150 158 120 104 133 166 148 129 154 170 174 184 191 190 192 194 202 206 193 190 190 213 243 248 250 266 289 288 272 260 270 284 276 276 278 281 45 1 331 334 4 341 321 286 290 311 333 357 352 337 338 329 325 325 324 331 307 269 255 250 240
10 8 8 7 7 10 11 10 8 7 6 3 3 15 32 40 57 64 59 61 56 41 47 51 67 99 141 111 121 164 118 95 95 131 143 143 162 179 183 190 193 190 187 190 205 201 188 189 215 244 244 238 258 273 271 268 258 257 279 282 270 278 311 356 64 348 341 338 330 313 281 299 315 322 335 340 332 328 322 317 316 320 334 331 287 261 256 240
11 10 11 10 11 13 12 11 9 9 8 8 10 17 21 30 61 54 34 40 37 47 56 44 69 101 192 108 107 130 114 88 95 126 148 144 152 189 189 182 180 183 188 190 194 181 184 203 231 257 257 240 245 261 269 274 263 237 251 288 294 295 307 324 72 111 339 326 314 284 291 303 309 318 325 331 330 324 317 312 314 320 332 330 302 271 262 245
12 12 13 12 14 15 13 12 11 11 11 12 19 28 41 59 65 49 30 43 64 73 70 40 63 124 72 95 120 127 114 92 103 103 146 165 162 176 183 174 166 168 168 167 170 175 196 217 238 249 239 243 257 267 270 271 273 261 270 289 292 295 299 304 316 94 338 316 303 274 277 282 298 314 317 323 332 321 312 313 316 320 330 327 313 300 291 271
12 13 13 13 15 16 14 12 12 14 13 14 27 44 61 65 57 47 42 54 59 73 72 34 26 167 100 85 104 133 134 97 92 75 151 179 171 165 175 176 161 155 163 178 186 194 211 216 233 254 232 233 246 248 259 284 312 312 304 302 297 295 294 293 304 341 337 314 300 283 274 279 299 309 311 317 328 318 308 311 313 310 321 326 322 332 356 5
12 13 13 13 14 16 15 13 14 17 15 17 34 56 67 61 55 49 44 45 39 40 55 18 360 315 28 18 359 209 198 134 68 44 145 191 183 170 176 180 170 180 203 206 180 189 227 230 231 256 251 243 251 258 278 304 316 309 300 296 294 294 291 288 297 322 335 309 294 286 289 295 299 301 306 314 322 312 296 306 313 305 307 321 330 350 13 2
11 12 13 13 14 14 15 15 17 17 16 22 40 64 57 30 44 52 37 39 43 46 48 15 6 1 2 358 333 248 222 262 40 67 184 197 182 175 181 186 190 213 234 244 176 175 239 253 246 263 288 315 327 308 296 303 300 293 291 287 287 288 288 289 291 300 315 294 293 292 296 296 294 294 297 309 314 304 300 312 314 308 310 321 343 356 2 356
9 11 12 12 12 12 14 16 19 17 17 25 39 59 54 19 30 31 3 30 48 49 52 36 32 29 22 21 10 270 193 239 187 171 218 156 175 188 184 196 220 225 221 248 263 178 233 262 269 292 333 340 330 316 297 292 284 280 282 283 288 287 292 298 293 288 227 273 292 293 293 293 291 293 296 302 300 299 313 313 311 312 312 318 344 350 349 353
8 9 10 11 10 10 12 14 17 18 18 26 35 47 48 32 42 29 345 21 36 39 45 34 32 33 26 28 32 52 86 217 143 159 242 155 190 209 184 200 236 244 187 223 251 236 234 253 282 343 356 333 299 295 280 281 281 279 279 279 286 292 297 298 295 290 184 257 295 296 294 292 289 290 287 285 282 294 309 306 307 307 305 314 332 339 341 347
6 6 8 9 8 9 9 11 14 15 19 26 30 32 28 20 23 33 41 270 12 39 41 30 31 32 25 23 27 43 44 27 61 73 315 202 203 233 230 224 252 270 243 238 253 269 268 288 12 355 339 313 292 282 269 274 275 270 277 282 286 303 307 301 306 313 268 268 284 291 292 286 282 277 265 269 272 284 296 296 299 300 302 317 327 336 343 346
4 4 6 6 7 8 6 9 10 10 17 22 23 19 15 8 5 25 41 260 70 54 34 35 36 27 19 13 16 32 51 43 32 15 342 251 239 248 250 266 275 264 252 263 269 276 283 315 349 327 304 301 297 289 276 273 282 277 279 285 292 308 308 304 308 307 295 279 261 273 287 280 286 280 257 279 283 280 289 293 294 299 325 327 326 350 355 352
2 2 3 3 7 7 5 10 7 5 12 13 12 8 5 0 355 19 229 236 114 48 14 36 36 18 13 8 11 13 104 60 32 15 13 242 289 291 285 291 270 282 315 308 286 272 284 333 345 317 303 301 292 291 290 287 298 290 281 295 309 314 307 302 303 300 295 290 217 243 295 293 304 295 278 285 289 289 289 288 296 316 53 2 350 11 2 357
0 0 0 2 5 7 10 11 1 4 10 3 359 357 354 350 345 24 227 219 96 30 360 17 13 16 18 5 359 330 201 65 36 22 24 218 264 298 299 268 222 302 345 325 297 271 289 7 349 312 309 305 290 284 290 300 298 292 310 328 322 311 305 299 301 297 288 295 309 287 290 296 298 287 289 299 298 291 279 284 306 347 50 14 3 9 360 357
359 359 359 360 3 7 12 5 359 8 5 349 348 349 347 339 332 22 237 195 80 8 346 6 2 14 15 2 357 336 232 11 16 29 22 354 283 278 271 297 240 277 343 297 292 225 191 314 309 314 309 300 290 291 335 332 298 293 315 326 318 309 305 300 299 293 285 293 289 274 271 280 289 285 289 293 282 266 228 356 317 14 36 9 2 2 358 358
358 358 357 358 1 6 7 360 0 4 352 342 344 346 345 334 324 327 248 170 43 345 340 6 6 6 356 356 20 41 36 357 337 23 17 12 9 275 250 331 317 302 323 273 285 36 50 317 322 322 309 298 299 314 334 319 291 296 314 317 309 301 296 295 293 287 289 293 283 279 276 274 286 301 292 263 263 243 130 349 324 28 24 354 353 356 356 357
357 357 357 356 358 2 4 1 359 354 347 344 343 346 349 3 162 237 248 126 20 350 6 0 360 356 344 347 51 52 47 30 22 10 9 24 17 321 264 344 322 300 287 255 275 296 320 325 321 312 304 307 317 319 318 306 291 302 312 306 295 288 279 276 282 287 290 280 277 288 293 282 291 308 313 260 263 286 349 336 331 10 10 352 354 354 353 356
355 355 355 355 356 358 0 3 356 346 344 344 343 347 353 23 203 227 54 71 3 359 354 345 355 349 343 359 54 37 44 49 32 8 27 41 27 17 309 302 314 297 264 237 256 284 305 296 275 308 327 329 325 314 303 297 300 302 300 293 289 287 278 266 266 277 282 277 279 302 33 292 296 302 302 298 341 3 345 330 333 347 354 358 358 353 353 355
354 354 353 354 356 356 356 356 350 343 343 342 342 348 337 234 268 311 65 85 303 356 347 342 1 356 355 12 27 21 31 42 26 14 34 40 36 31 12 289 333 305 257 238 247 305 308 283 180 83 15 355 332 309 298 278 281 291 290 294 296 291 283 272 260 254 267 282 317 55 5 285 283 300 301 306 15 53 20 347 341 339 347 354 352 351 355 354
354 353 352 353 355 356 354 348 344 344 341 338 341 344 261 233 21 48 53 235 248 8 7 347 352 352 355 7 20 18 11 23 17 14 18 8 46 44 34 36 0 316 288 319 322 334 311 314 61 89 48 12 345 317 319 287 277 299 300 308 306 298 298 292 284 277 278 286 311 7 333 290 280 288 291 303 28 60 42 11 350 340 344 345 345 350 354 354
353 352 352 353 354 354 351 344 343 342 339 338 337 304 255 306 43 48 7 2 15 2 341 323 331 337 328 338 17 12 6 34 12 358 9 357 42 67 57 41 15 340 338 331 316 325 300 102 51 335 77 15 354 342 339 319 315 315 313 320 306 301 305 293 288 286 281 286 297 307 305 285 280 285 291 3 63 69 57 39 6 348 341 337 344 351 352 353
353 351 351 354 355 352 349 347 345 341 340 336 308 252 339 35 68 72 0 28 18 323 319 317 308 309 45 57 31 13 16 54 19 359 9 11 26 64 56 40 22 1 324 309 303 333 292 224 46 11 357 355 355 0 331 309 299 294 304 307 288 294 299 289 295 297 293 295 294 291 283 270 282 345 88 99 96 86 64 46 20 357 349 348 353 353 351 351
354 353 352 355 356 353 350 349 346 343 343 329 291 305 52 68 96 116 21 4 333 322 320 310 291 258 125 95 68 48 33 15 12 2 14 34 36 35 33 32 21 3 335 321 335 320 281 260 10 356 329 314 335 348 330 303 289 289 311 287 280 311 311 287 290 290 293 294 286 279 267 253 272 285 154 139 116 90 66 51 41 23 12 8 3 355 350 348
357 357 357 357 355 351 351 351 349 354 344 305 313 64 67 69 32 48 25 332 311 326 312 292 291 297 107 112 98 68 37 335 354 354 43 71 54 41 36 34 22 6 351 342 330 311 292 294 327 321 305 289 325 328 317 291 294 316 298 290 321 338 306 288 285 277 273 278 276 271 266 259 268 267 185 161 158 104 72 51 42 30 19 12 7 359 351 346
359 358 360 1 354 348 351 356 360 12 355 308 66 72 78 90 36 24 9 329 302 313 308 300 39 337 332 333 1 31 353 316 358 351 353 109 79 36 27 37 31 14 2 343 324 24 328 296 300 298 290 309 330 315 295 261 264 289 292 324 345 304 265 268 281 279 272 274 277 275 275 276 278 274 190 190 222 30 41 36 32 22 15 9 4 360 353 348
357 357 3 0 353 350 358 9 14 22 33 50 87 91 68 106 67 14 358 334 293 279 296 313 20 325 314 326 331 20 344 325 0 349 339 65 79 25 11 35 29 10 2 332 299 19 338 300 297 248 268 327 329 306 290 239 215 257 289 319 321 279 262 261 266 278 282 279 281 282 282 279 276 278 246 214 270 0 4 7 11 6 6 2 358 357 354 349
357 1 9 359 355 359 10 20 24 19 41 67 89 98 61 101 87 33 353 335 291 282 303 335 358 293 300 328 328 4 350 337 345 334 345 0 27 46 26 3 359 359 358 332 304 341 324 297 301 193 271 325 315 283 289 267 235 271 286 280 256 252 283 281 272 280 282 280 283 289 290 283 283 311 7 43 14 354 343 343 345 350 354 353 352 351 350 347
357 359 5 359 360 10 15 26 40 40 55 59 59 82 92 106 84 35 357 340 296 291 323 333 294 289 309 320 310 339 336 323 327 307 320 354 46 74 43 6 341 349 344 316 295 342 321 282 285 288 300 307 292 276 309 303 293 290 285 278 272 276 286 280 273 269 270 276 280 285 286 285 333 44 30 3 356 344 336 332 327 334 339 341 343 343 344 343
357 349 356 358 2 17 18 31 45 39 67 76 64 88 79 3 345 359 0 335 289 291 325 309 300 303 313 305 292 11 324 299 304 300 297 347 270 72 43 17 348 341 333 309 302 2 347 296 285 291 296 287 283 312 306 293 290 289 287 292 300 307 302 283 271 266 266 274 276 279 278 277 332 36 327 325 334 330 328 326 322 321 321 325 328 328 331 332
357 337 343 355 4 19 19 40 54 30 60 69 57 77 38 329 305 320 342 316 273 251 272 261 304 313 287 297 312 348 322 299 302 307 298 15 22 59 48 20 354 335 328 320 335 11 347 290 276 282 286 284 286 294 293 286 282 273 274 294 315 313 312 291 281 286 285 280 283 281 271 270 292 323 316 319 325 325 322 317 311 308 309 314 316 313 312 314
347 319 331 354 9 20 16 47 67 42 60 71 95 141 42 300 299 305 320 334 311 270 266 216 203 300 289 323 298 297 325 305 292 308 316 120 83 93 61 16 358 338 332 334 349 0 336 288 287 295 290 283 271 258 247 236 247 245 244 310 326 318 314 300 289 292 284 277 279 274 266 269 286 300 313 317 313 312 309 309 310 309 308 311 312 309 306 307
327 305 317 353 9 27 31 27 25 30 62 71 160 147 143 270 337 327 323 4 358 306 282 222 192 313 25 336 283 280 331 302 263 302 316 292 78 102 63 10 2 344 353 19 358 344 330 307 322 315 305 304 262 225 199 197 252 292 309 314 317 315 309 300 290 285 274 268 269 268 267 274 282 283 285 296 305 314 324 333 337 334 332 333 329 322 316 312
329 305 307 347 6 37 65 55 13 11 52 30 265 172 177 173 67 340 319 356 2 326 309 276 302 329 332 262 248 231 282 281 283 341 285 286 94 117 45 358 355 338 355 30 346 322 301 299 314 304 304 311 302 303 321 311 299 308 307 302 306 307 302 298 292 278 270 271 271 268 272 282 289 293 295 306 325 339 348 351 349 345 343 343 340 335 330 325
330 306 318 343 11 48 78 83 40 7 15 347 290 208 226 209 144 133 285 314 23 351 332 343 285 260 235 225 237 232 235 257 275 292 285 290 328 109 355 338 332 327 348 22 330 314 288 283 286 275 280 289 292 300 311 309 298 293 295 297 298 297 293 290 280 270 278 286 274 268 279 287 291 295 303 327 351 351 346 346 345 341 339 338 336 336 334 329
308 307 348 337 353 60 91 85 44 19 31 320 296 175 223 238 196 188 221 258 32 60 306 330 258 244 235 243 260 258 257 248 250 274 293 294 302 325 325 319 320 325 196 231 318 325 297 284 282 276 274 278 287 295 298 295 289 289 294 295 293 294 288 276 267 273 286 288 274 276 287 289 291 301 317 341 354 346 341 344 342 337 334 333 332 333 333 330
297 322 345 313 305 339 39 42 23 20 174 236 260 185 225 239 232 223 203 194 230 245 242 220 197 228 331 307 287 276 259 257 255 264 293 303 310 321 319 313 321 116 201 258 332 348 304 286 285 280 280 284 288 290 290 288 286 287 290 292 292 291 281 273 272 276 278 276 278 290 296 294 299 317 333 343 345 341 339 338 336 335 333 330 330 333 332 330
299 304 293 276 278 298 324 354 335 260 219 219 225 207 218 230 225 214 197 227 220 211 247 239 190 135 77 224 269 270 258 278 287 273 336 319 308 310 312 307 310 125 281 307 332 332 295 284 308 302 292 291 289 287 289 288 287 288 289 290 289 282 277 277 278 279 279 279 285 295 298 295 302 329 340 334 335 336 334 333 333 334 334 328 324 327 331 332
284 287 295 290 272 259 259 237 235 246 216 199 217 212 208 224 223 192 183 237 234 200 228 234 186 155 192 213 248 261 254 309 298 293 311 308 299 302 308 300 261 312 317 317 321 321 294 294 321 315 295 290 290 288 288 288 292 295 291 285 280 277 278 282 284 287 289 289 293 296 293 290 298 324 325 323 326 326 323 326 326 326 330 328 321 318 324 329
278 281 283 286 272 227 207 213 222 248 238 209 207 193 198 216 211 186 180 217 239 242 223 204 185 177 190 220 238 231 180 219 261 271 278 275 278 290 290 282 295 305 308 305 304 307 294 290 304 305 291 290 298 298 296 298 297 291 284 281 281 281 287 292 295 296 295 296 296 294 290 293 313 323 318 316 319 319 317 319 321 320 322 323 321 318 319 324
282 285 276 270 267 224 210 212 214 236 253 220 201 193 204 206 184 180 193 189 191 211 186 171 195 216 217 229 229 197 187 236 256 264 270 267 267 272 271 272 282 288 287 291 291 284 281 285 295 297 288 292 303 308 308 307 300 292 290 314 316 298 296 298 300 300 299 298 297 292 294 305 313 313 311 311 314 316 315 316 316 314 313 313 314 317 318 321